Tracking 23099 objects as of 13-May-2021
HD Live streaming from Space Station
objects crossing your sky now

FLOCK 4P 5

Track FLOCK 4P 5 now!
10-day predictions
FLOCK 4P 5 is classified as:


NORAD ID: 44818
Int'l Code: 2019-081Q
Perigee: 501.4 km
Apogee: 516.7 km
Inclination: 97.5 °
Period: 94.7 minutes
Semi major axis: 6880 km
RCS: Unknown
Launch date: November 27, 2019
Source: United States (US)
Launch site: SRIHARIKOTA (SRI)
aabbcc
Your satellite tracking list
Your tracking list is empty




NASA's NSSDC Master Catalog

Two Line Element Set (TLE):
1 44818U 19081Q   21133.47210628  .00004577  00000-0  20744-3 0  9997
2 44818  97.4514 197.8236 0011058 171.3324 188.8105 15.21302704 81026
Source of the keplerian elements: AFSPC